CZ-3C DEB, 40867

Orbit data source: Space-Track

CZ-3C DEB, 40867 is space debris in HEO originally from a launch on Fri, 24 Feb 2012 UTC launched from the Xichang Space Center, China (XSC). Debris objects in space refer to the collection of defunct objects orbiting the Earth. Examples of debris include non-operational satellites, rocket bodies, and fragments generated from explosions, collisions, or faulty payload assembly.

Loading next visibility...
Identifier
40867, 2012-008AH
Orbit
HEO
Last TLE update
6 months ago
Origin
Manufacturer
CALT
Mission
Spacecraft
Bus & Motor
Unknown
Mass
Unknown
Launch date (UTC)
2012-02-24 (13 years ago)
Launch vehicle
Unknown
Launch site
Xichang Space Center, China (XSC)
Object type
Payload
Rocket body
Debris
Shape & HBR
Unknown
Radar Cross Section
Medium (>0.1 m² and <1 m²)

Expand to show TLE details & history

TLE from 6 months ago
0 CZ-3C DEB
1 40867U 12008AH  24298.01940812  .00000293  00000-0  37047-2 0  9993
2 40867  21.4063 188.7513 7183143 222.3329  51.5447  2.25785042 94415
Epoch: 2024-10-24T00:27Z
Definitive object data (Epoch: 2024-10-24T00:27:56.861Z)
Latitude
0.0002°
Longitude
148.95742°
Altitude
19,000.136 km
Speed
3.895 km/s
True Right ascension
12h 35m 24s
True Declination
0° 00' 01"
Sunlit
Object was in daylight at TLE epoch
Visualization TLE readout
Latitude
-0.49316°
Longitude
-101.62595°
Altitude
33,603.93 km
Speed
1.921 km/s
Apparent Right ascension
20h 21m 13s
Apparent Declination
-6° 20' 31"
Sunlit
Object is in daylight
Visualization observer readout
Local Sidereal Time
14:19:20
Azimuth
94.572° ESE
Elevation
-4.426°
Doppler factor
1
Orbital elements
Apogee altitude
35,802.848 km
Perigee altitude
536.652 km
Semi-major axis
24,547.887 km
Eccentricity
0.7183143
Inclination
21.4063°
RAAN
188.7513°
Arg. of periapsis
222.3329°
True anomaly
137.73378°
Mean anomaly
51.5447°
Eccentric anomaly
92.65684°
Mean motion
0.56432 °/min
BSTAR
0.0037047
Orbital period
637.94 mins
Loading maneuver chart data...
Loading SW <> Apogee altitude chart data...
Loading historical data...
Loading historical data...
Loading historical data...
Loading historical data...
Loading historical data...
Loading historical data...
Loading historical data...

CZ-3C DEB Visibility forecast

Observer location: undefined°, undefined°

Span
Click to sort rows by Start time (UTC) header in descending order
Start Az.
Max El. time (UTC)
Max El. Az.
Max El.
End time (UTC)
End Az.
293 mins2025-05-09 10:45:32.993Z269.62° W2025-05-09 12:04:32.993Z251.017° W27.41°2025-05-09 15:38:32.993Z257.483° W
|